{"data":{"norad_id":58490,"intl_designator":"2023-186T","name":"STARLINK-30978","alt_names":[],"object_type":"PAYLOAD","status":"ACTIVE","operator":null,"country":"US","launch_date":"2023-12-03","launch_site_code":"AFETR","launch_vehicle":null,"mission":null,"orbit_class":"UNKNOWN","rcs_meters":null,"size_class":null,"mass_kg":null,"dimensions":null,"purposes":["comms"],"wikipedia_slug":null,"has_3d_model":false,"image_url":null,"decayed_at":null,"tle_current":{"epoch":"2026-05-24T23:21:13.279104Z","epoch_age_seconds":74511,"freshness":"FRESH","line1":"1 58490U 23186T   26144.97307036  .00000890  00000+0  41881-4 0  9990","line2":"2 58490  43.0057 352.7674 0001884 279.2841  80.7798 15.27578161137558","mean_motion":15.27578161,"eccentricity":0.0001884,"inclination_deg":43.0057,"raan_deg":352.7674,"arg_perigee_deg":279.2841,"mean_anomaly_deg":80.7798,"bstar":4.1881e-5,"rev_number":13755,"period_min":94.266862198222,"perigee_km":481.76195417481,"apogee_km":484.3472511707,"semimajor_km":6861.1916026728,"source":"CELESTRAK","updated_at":"2026-05-25T13:38:18.653562Z"}}}